Location: Newark
(44.8699°N, 13.8438°E)
Time: 07:18:19
(UTC+00:00)

Envisat - Pass Details

Date: 21 September 2019
Orbit: 764 x 766 km, 98.1° (Epoch: 19 October)

Event Time Altitude Azimuth Distance (km) Brightness Sun altitude
Rises 18:46:32 0° 220° (SW) 3,222 6.5 -18.5°
Reaches altitude 10° 18:50:30 10° 251° (WSW) 2,303 6.2 -19.1°
Maximum altitude 18:52:21 12° 273° (W) 2,175 6.4 -19.4°
Drops below altitude 10° 18:54:13 10° 295° (WNW) 2,309 6.7 -19.7°
Sets 18:58:13 0° 326° (NW) 3,242 7.2 -20.4°
